Time,TemperatureF,DewpointF,PressureIn,WindDirection,WindDirectionDegrees,WindSpeedMPH,WindSpeedGustMPH,Humidity,HourlyPrecipIn,Conditions,Clouds,dailyrainin,SoftwareType,DateUTC
2013-08-12 00:02:00,74.8,60.4,30.00,East,81,0.0,0.0,61,0.00,CLR,CLR,0.00,WeatherDisplay:10.37,2013-08-12 05:02:00,
2013-08-12 00:07:00,74.5,60.6,30.00,NE,34,1.2,1.2,62,0.00,CLR,CLR,0.00,WeatherDisplay:10.37,2013-08-12 05:07:00,
2013-08-12 00:12:00,74.3,61.3,29.99,NNW,336,3.5,3.5,64,0.00,CLR,CLR,0.00,WeatherDisplay:10.37,2013-08-12 05:12:00,
2013-08-12 00:18:00,74.3,61.3,29.99,North,355,3.5,3.5,64,0.00,CLR,CLR,0.00,WeatherDisplay:10.37,2013-08-12 05:18:00,
2013-08-12 00:22:00,74.2,61.2,29.98,East,92,2.3,0.0,64,0.00,CLR,CLR,0.00,WeatherDisplay:10.37,2013-08-12 05:22:00,
2013-08-12 00:28:00,74.2,61.2,29.99,East,92,2.3,2.3,64,0.00,CLR,CLR,0.00,WeatherDisplay:10.37,2013-08-12 05:28:00,
2013-08-12 00:33:00,74.2,61.7,30.00,ENE,58,2.0,2.0,65,0.00,CLR,CLR,0.00,WeatherDisplay:10.37,2013-08-12 05:33:00,
2013-08-12 00:38:00,73.3,61.7,30.00,NW,317,0.0,0.0,67,0.11,RA,RA,0.12,WeatherDisplay:10.37,2013-08-12 05:38:00,
2013-08-12 00:43:00,72.2,60.6,30.01,NW,317,0.0,0.0,67,0.17,RA,RA,0.17,WeatherDisplay:10.37,2013-08-12 05:43:00,
2013-08-12 00:48:00,71.1,59.2,30.01,NW,313,2.3,2.3,66,0.18,RA,RA,0.18,WeatherDisplay:10.37,2013-08-12 05:48:00,
2013-08-12 00:53:00,70.1,57.8,30.01,SW,229,3.5,3.5,65,0.20,RA,RA,0.20,WeatherDisplay:10.37,2013-08-12 05:53:00,
2013-08-12 00:59:00,69.3,57.0,30.00,SW,222,3.5,3.5,65,0.24,RA,RA,0.25,WeatherDisplay:10.37,2013-08-12 05:59:00,
2013-08-12 01:04:00,68.8,56.1,30.00,SSE,162,0.0,0.0,64,0.28,RA,RA,0.29,WeatherDisplay:10.37,2013-08-12 06:04:00,
2013-08-12 01:09:00,68.5,55.4,30.00,SSE,163,0.0,0.0,63,0.29,RA,RA,0.29,WeatherDisplay:10.37,2013-08-12 06:09:00,
2013-08-12 01:14:00,68.4,54.9,30.00,SSE,163,0.0,0.0,62,0.29,OVC,OVC,0.29,WeatherDisplay:10.37,2013-08-12 06:14:00,
2013-08-12 01:19:00,68.3,54.3,30.00,SSE,163,0.0,0.0,61,0.29,OVC,OVC,0.29,WeatherDisplay:10.37,2013-08-12 06:19:00,
2013-08-12 01:24:00,68.3,54.3,30.00,SSE,162,0.0,0.0,61,0.29,OVC,OVC,0.29,WeatherDisplay:10.37,2013-08-12 06:24:00,
2013-08-12 01:30:00,68.3,54.3,30.00,SSE,163,1.2,0.0,61,0.29,OVC,OVC,0.29,WeatherDisplay:10.37,2013-08-12 06:30:00,
2013-08-12 01:35:00,68.3,53.9,30.00,SSE,163,2.3,2.3,60,0.27,OVC,OVC,0.29,WeatherDisplay:10.37,2013-08-12 06:35:00,
2013-08-12 01:40:00,68.5,54.1,29.99,SSE,163,1.2,1.2,60,0.14,OVC,OVC,0.29,WeatherDisplay:10.37,2013-08-12 06:40:00,
2013-08-12 01:45:00,68.7,53.8,29.99,SSE,163,2.0,2.0,59,0.12,OVC,OVC,0.29,WeatherDisplay:10.37,2013-08-12 06:45:00,
2013-08-12 01:50:00,68.7,53.8,29.99,SSE,160,2.3,2.3,59,0.11,OVC,OVC,0.29,WeatherDisplay:10.37,2013-08-12 06:50:00,
2013-08-12 01:56:00,68.7,53.3,29.99,SSE,160,3.5,3.5,58,0.07,OVC,OVC,0.29,WeatherDisplay:10.37,2013-08-12 06:56:00,
2013-08-12 02:01:00,68.6,52.8,29.99,SSE,167,3.5,3.5,57,0.03,OVC,OVC,0.29,WeatherDisplay:10.37,2013-08-12 07:01:00,
2013-08-12 02:06:00,68.5,52.7,29.99,SSE,153,3.5,3.5,57,0.00,OVC,OVC,0.29,WeatherDisplay:10.37,2013-08-12 07:06:00,
2013-08-12 02:11:00,68.5,52.2,29.99,SSE,158,2.3,2.3,56,0.00,OVC,OVC,0.29,WeatherDisplay:10.37,2013-08-12 07:11:00,
2013-08-12 02:16:00,68.4,52.1,29.99,SSE,160,4.0,4.0,56,0.00,OVC,OVC,0.29,WeatherDisplay:10.37,2013-08-12 07:16:00,
2013-08-12 02:21:00,68.5,51.7,29.99,SSE,166,3.5,3.5,55,0.00,OVC,OVC,0.29,WeatherDisplay:10.37,2013-08-12 07:21:00,
2013-08-12 02:26:00,68.4,51.6,29.99,SSE,166,2.3,2.3,55,0.00,OVC,OVC,0.29,WeatherDisplay:10.37,2013-08-12 07:26:00,
2013-08-12 02:32:00,68.3,51.5,29.99,SSE,167,2.3,2.3,55,0.00,OVC,OVC,0.29,WeatherDisplay:10.37,2013-08-12 07:32:00,
2013-08-12 02:37:00,68.1,51.3,29.99,SSE,167,2.3,2.3,55,0.00,OVC,OVC,0.29,WeatherDisplay:10.37,2013-08-12 07:37:00,
2013-08-12 02:42:00,68.0,51.2,29.99,SSE,167,0.0,0.0,55,0.00,OVC,OVC,0.29,WeatherDisplay:10.37,2013-08-12 07:42:00,
2013-08-12 02:47:00,67.9,51.1,29.98,SSE,167,2.3,2.3,55,0.00,OVC,OVC,0.29,WeatherDisplay:10.37,2013-08-12 07:47:00,
2013-08-12 02:52:00,67.8,51.0,29.98,SSE,164,2.0,2.0,55,0.00,OVC,OVC,0.29,WeatherDisplay:10.37,2013-08-12 07:52:00,
2013-08-12 02:58:00,67.7,50.9,29.98,SSE,164,3.5,3.5,55,0.00,OVC,OVC,0.29,WeatherDisplay:10.37,2013-08-12 07:58:00,
2013-08-12 03:03:00,67.6,50.9,29.98,SSE,164,3.5,3.5,55,0.00,OVC,OVC,0.29,WeatherDisplay:10.37,2013-08-12 08:03:00,
2013-08-12 03:08:00,67.6,50.9,29.98,SSE,164,3.5,3.5,55,0.00,OVC,OVC,0.29,WeatherDisplay:10.37,2013-08-12 08:08:00,
2013-08-12 03:13:00,67.5,50.8,29.98,SSE,164,3.5,3.5,55,0.00,OVC,OVC,0.29,WeatherDisplay:10.37,2013-08-12 08:13:00,
2013-08-12 03:18:00,67.5,50.8,29.97,SSE,164,2.3,2.3,55,0.00,OVC,OVC,0.29,WeatherDisplay:10.37,2013-08-12 08:18:00,
2013-08-12 03:24:00,67.4,50.7,29.97,SSE,158,3.5,3.5,55,0.00,OVC,OVC,0.29,WeatherDisplay:10.37,2013-08-12 08:24:00,
2013-08-12 03:29:00,67.4,50.7,29.97,SSE,159,3.5,3.5,55,0.00,OVC,OVC,0.29,WeatherDisplay:10.37,2013-08-12 08:29:00,
2013-08-12 03:34:00,67.4,50.7,29.97,South,171,0.0,0.0,55,0.00,OVC,OVC,0.29,WeatherDisplay:10.37,2013-08-12 08:34:00,
2013-08-12 03:39:00,67.5,50.8,29.97,South,171,3.5,3.5,55,0.00,OVC,OVC,0.29,WeatherDisplay:10.37,2013-08-12 08:39:00,
2013-08-12 03:45:00,67.5,50.8,29.97,SSE,165,1.2,0.0,55,0.00,OVC,OVC,0.29,WeatherDisplay:10.37,2013-08-12 08:45:00,
2013-08-12 03:50:00,67.6,50.9,29.97,SSE,165,3.5,3.5,55,0.00,OVC,OVC,0.29,WeatherDisplay:10.37,2013-08-12 08:50:00,
2013-08-12 03:55:00,67.6,50.9,29.97,SSE,165,2.3,2.3,55,0.00,OVC,OVC,0.29,WeatherDisplay:10.37,2013-08-12 08:55:00,
2013-08-12 04:00:00,67.6,50.9,29.96,SSE,165,3.5,3.5,55,0.00,OVC,OVC,0.29,WeatherDisplay:10.37,2013-08-12 09:00:00,
2013-08-12 04:05:00,67.7,50.9,29.96,SSE,165,3.5,3.5,55,0.00,OVC,OVC,0.29,WeatherDisplay:10.37,2013-08-12 09:05:00,
2013-08-12 04:10:00,67.7,50.5,29.96,South,170,3.5,3.5,54,0.00,OVC,OVC,0.29,WeatherDisplay:10.37,2013-08-12 09:10:00,
2013-08-12 04:15:00,67.8,50.5,29.96,South,170,3.5,3.5,54,0.00,OVC,OVC,0.29,WeatherDisplay:10.37,2013-08-12 09:15:00,
2013-08-12 04:21:00,67.9,50.6,29.96,SSE,160,3.5,3.5,54,0.00,OVC,OVC,0.29,WeatherDisplay:10.37,2013-08-12 09:21:00,
2013-08-12 04:26:00,68.0,50.7,29.96,South,169,4.6,4.6,54,0.00,OVC,OVC,0.29,WeatherDisplay:10.37,2013-08-12 09:26:00,
2013-08-12 04:31:00,68.1,50.8,29.95,SSE,167,3.5,3.5,54,0.00,OVC,OVC,0.29,WeatherDisplay:10.37,2013-08-12 09:31:00,
2013-08-12 04:37:00,68.1,50.8,29.95,SSE,168,3.5,3.5,54,0.00,OVC,OVC,0.29,WeatherDisplay:10.37,2013-08-12 09:37:00,
2013-08-12 04:42:00,68.1,50.8,29.95,SSE,168,1.2,1.2,54,0.00,OVC,OVC,0.29,WeatherDisplay:10.37,2013-08-12 09:42:00,
2013-08-12 04:47:00,68.1,50.8,29.95,South,171,0.0,0.0,54,0.00,OVC,OVC,0.29,WeatherDisplay:10.37,2013-08-12 09:47:00,
2013-08-12 04:52:00,68.2,50.9,29.95,SSE,166,0.0,0.0,54,0.00,OVC,OVC,0.29,WeatherDisplay:10.37,2013-08-12 09:52:00,
2013-08-12 04:57:00,68.2,50.9,29.96,SSE,166,2.3,2.3,54,0.00,OVC,OVC,0.29,WeatherDisplay:10.37,2013-08-12 09:57:00,
2013-08-12 05:02:00,68.2,50.9,29.95,SSE,166,0.0,0.0,54,0.00,OVC,OVC,0.29,WeatherDisplay:10.37,2013-08-12 10:02:00,
2013-08-12 05:07:00,68.3,51.0,29.96,SSE,166,0.0,0.0,54,0.00,OVC,OVC,0.29,WeatherDisplay:10.37,2013-08-12 10:07:00,
2013-08-12 05:12:00,68.3,51.0,29.96,SSE,166,0.0,0.0,54,0.00,OVC,OVC,0.29,WeatherDisplay:10.37,2013-08-12 10:12:00,
2013-08-12 05:17:00,68.3,51.0,29.96,SSE,166,0.0,0.0,54,0.00,OVC,OVC,0.29,WeatherDisplay:10.37,2013-08-12 10:17:00,
2013-08-12 05:23:00,68.3,51.0,29.95,SSE,166,0.0,0.0,54,0.00,OVC,OVC,0.29,WeatherDisplay:10.37,2013-08-12 10:23:00,
2013-08-12 05:28:00,68.3,51.0,29.96,SSE,166,0.0,0.0,54,0.00,OVC,OVC,0.29,WeatherDisplay:10.37,2013-08-12 10:28:00,
2013-08-12 05:33:00,68.4,51.1,29.96,SSE,166,0.0,0.0,54,0.00,OVC,OVC,0.29,WeatherDisplay:10.37,2013-08-12 10:33:00,
2013-08-12 05:38:00,68.4,51.1,29.96,SSE,166,3.5,3.5,54,0.00,OVC,OVC,0.29,WeatherDisplay:10.37,2013-08-12 10:38:00,
2013-08-12 05:43:00,68.4,51.1,29.96,SSE,166,2.3,2.3,54,0.00,OVC,OVC,0.29,WeatherDisplay:10.37,2013-08-12 10:43:00,
2013-08-12 05:48:00,68.2,50.9,29.96,WNW,302,4.6,4.6,54,0.00,OVC,OVC,0.29,WeatherDisplay:10.37,2013-08-12 10:48:00,
2013-08-12 05:54:00,67.9,50.6,29.96,NNW,347,0.0,0.0,54,0.00,OVC,OVC,0.29,WeatherDisplay:10.37,2013-08-12 10:54:00,
2013-08-12 05:59:00,67.7,50.5,29.96,NNW,346,0.0,0.0,54,0.00,OVC,OVC,0.29,WeatherDisplay:10.37,2013-08-12 10:59:00,
2013-08-12 06:04:00,67.6,50.4,29.96,NNW,346,1.2,1.2,54,0.00,OVC,OVC,0.29,WeatherDisplay:10.37,2013-08-12 11:04:00,
2013-08-12 06:09:00,67.5,50.3,29.96,NNW,346,0.0,0.0,54,0.00,OVC,OVC,0.29,WeatherDisplay:10.37,2013-08-12 11:09:00,
2013-08-12 06:14:00,67.5,50.3,29.96,NNW,346,0.0,0.0,54,0.00,OVC,OVC,0.29,WeatherDisplay:10.37,2013-08-12 11:14:00,
2013-08-12 06:19:00,67.4,50.2,29.96,NNW,346,0.0,0.0,54,0.00,OVC,OVC,0.29,WeatherDisplay:10.37,2013-08-12 11:19:00,
2013-08-12 06:24:00,67.3,50.1,29.96,NNW,346,0.0,0.0,54,0.00,OVC,OVC,0.29,WeatherDisplay:10.37,2013-08-12 11:24:00,
2013-08-12 06:29:00,67.2,50.0,29.96,NNW,346,0.0,0.0,54,0.00,OVC,OVC,0.29,WeatherDisplay:10.37,2013-08-12 11:29:00,
2013-08-12 06:34:00,67.1,49.9,29.96,NNW,346,0.0,0.0,54,0.00,OVC,OVC,0.29,WeatherDisplay:10.37,2013-08-12 11:34:00,
2013-08-12 06:39:00,67.1,49.9,29.96,NNW,346,0.0,0.0,54,0.00,OVC,OVC,0.29,WeatherDisplay:10.37,2013-08-12 11:39:00,
2013-08-12 06:45:00,67.1,49.9,29.97,NNW,346,0.0,0.0,54,0.00,OVC,OVC,0.29,WeatherDisplay:10.37,2013-08-12 11:45:00,
2013-08-12 06:50:00,67.2,50.0,29.96,NNW,346,1.2,1.2,54,0.00,OVC,OVC,0.29,WeatherDisplay:10.37,2013-08-12 11:50:00,
2013-08-12 06:55:00,67.4,50.2,29.96,NNW,346,2.3,2.3,54,0.00,OVC,OVC,0.29,WeatherDisplay:10.37,2013-08-12 11:55:00,
2013-08-12 07:00:00,67.6,50.4,29.97,NNE,19,6.9,6.9,54,0.00,OVC,OVC,0.29,WeatherDisplay:10.37,2013-08-12 12:00:00,
2013-08-12 07:06:00,67.7,50.5,29.97,NNE,23,3.0,3.0,54,0.00,OVC,OVC,0.29,WeatherDisplay:10.37,2013-08-12 12:06:00,
2013-08-12 07:11:00,67.7,50.5,29.97,NNE,22,3.5,3.5,54,0.00,OVC,OVC,0.29,WeatherDisplay:10.37,2013-08-12 12:11:00,
2013-08-12 07:16:00,67.8,50.5,29.98,NNE,22,5.8,5.8,54,0.00,OVC,OVC,0.29,WeatherDisplay:10.37,2013-08-12 12:16:00,
2013-08-12 07:21:00,67.8,50.0,29.98,NNE,19,3.5,3.5,53,0.00,OVC,OVC,0.29,WeatherDisplay:10.37,2013-08-12 12:21:00,
2013-08-12 07:26:00,67.9,50.1,29.98,NNE,12,1.2,1.2,53,0.00,OVC,OVC,0.29,WeatherDisplay:10.37,2013-08-12 12:26:00,
2013-08-12 07:31:00,67.9,50.1,29.98,NNE,12,0.0,0.0,53,0.00,OVC,OVC,0.29,WeatherDisplay:10.37,2013-08-12 12:31:00,
2013-08-12 07:37:00,68.0,50.2,29.98,NNE,12,2.0,2.0,53,0.00,OVC,OVC,0.29,WeatherDisplay:10.37,2013-08-12 12:37:00,
2013-08-12 07:42:00,68.1,50.3,29.98,NNE,12,0.0,0.0,53,0.00,OVC,OVC,0.29,WeatherDisplay:10.37,2013-08-12 12:42:00,
2013-08-12 07:47:00,68.3,50.5,29.98,North,11,2.3,2.3,53,0.00,OVC,OVC,0.29,WeatherDisplay:10.37,2013-08-12 12:47:00,
2013-08-12 07:52:00,68.3,50.5,29.98,North,11,2.3,2.3,53,0.00,OVC,OVC,0.29,WeatherDisplay:10.37,2013-08-12 12:52:00,
2013-08-12 07:58:00,68.5,50.7,29.98,NNE,12,3.5,3.5,53,0.00,OVC,OVC,0.29,WeatherDisplay:10.37,2013-08-12 12:58:00,
2013-08-12 08:03:00,68.5,50.7,29.98,NNE,20,3.5,3.5,53,0.00,OVC,OVC,0.29,WeatherDisplay:10.37,2013-08-12 13:03:00,
2013-08-12 08:08:00,68.5,50.7,29.98,NNE,20,3.5,0.0,53,0.00,OVC,OVC,0.29,WeatherDisplay:10.37,2013-08-12 13:08:00,
2013-08-12 08:13:00,68.6,50.8,29.98,North,11,1.2,1.2,53,0.00,OVC,OVC,0.29,WeatherDisplay:10.37,2013-08-12 13:13:00,
2013-08-12 08:18:00,68.5,50.7,29.99,North,360,2.3,2.3,53,0.00,OVC,OVC,0.29,WeatherDisplay:10.37,2013-08-12 13:18:00,
2013-08-12 08:23:00,68.6,50.8,29.99,North,5,3.5,3.5,53,0.00,OVC,OVC,0.29,WeatherDisplay:10.37,2013-08-12 13:23:00,
2013-08-12 08:29:00,68.7,50.9,29.99,NNE,22,3.0,3.0,53,0.00,OVC,OVC,0.29,WeatherDisplay:10.37,2013-08-12 13:29:00,
2013-08-12 08:34:00,68.9,51.1,29.99,NNE,22,3.5,3.5,53,0.00,OVC,OVC,0.29,WeatherDisplay:10.37,2013-08-12 13:34:00,
2013-08-12 08:39:00,68.9,51.1,30.00,NNE,21,2.3,2.3,53,0.00,OVC,OVC,0.29,WeatherDisplay:10.37,2013-08-12 13:39:00,
2013-08-12 08:44:00,69.0,51.2,30.00,North,5,5.8,5.8,53,0.00,OVC,OVC,0.29,WeatherDisplay:10.37,2013-08-12 13:44:00,
2013-08-12 08:49:00,69.0,51.2,30.00,North,5,5.8,5.8,53,0.00,OVC,OVC,0.29,WeatherDisplay:10.37,2013-08-12 13:49:00,
2013-08-12 08:54:00,68.8,51.0,30.00,NNW,347,3.5,3.5,53,0.00,OVC,OVC,0.29,WeatherDisplay:10.37,2013-08-12 13:54:00,
2013-08-12 08:59:00,68.9,51.1,30.00,NNW,347,3.0,3.0,53,0.00,OVC,OVC,0.29,WeatherDisplay:10.37,2013-08-12 13:59:00,
2013-08-12 09:04:00,69.0,51.2,30.00,NNW,329,0.0,0.0,53,0.00,OVC,OVC,0.29,WeatherDisplay:10.37,2013-08-12 14:04:00,
2013-08-12 09:10:00,69.1,51.2,30.00,NNW,332,5.0,5.0,53,0.00,OVC,OVC,0.29,WeatherDisplay:10.37,2013-08-12 14:10:00,
2013-08-12 09:15:00,68.9,51.1,30.00,North,5,4.6,4.6,53,0.00,OVC,OVC,0.29,WeatherDisplay:10.37,2013-08-12 14:15:00,
2013-08-12 09:20:00,68.8,51.5,30.00,NW,321,4.6,4.6,54,0.00,OVC,OVC,0.29,WeatherDisplay:10.37,2013-08-12 14:20:00,
2013-08-12 09:25:00,68.7,51.4,30.00,NNE,28,5.8,5.8,54,0.00,OVC,OVC,0.29,WeatherDisplay:10.37,2013-08-12 14:25:00,
2013-08-12 09:30:00,68.7,51.4,30.00,NE,39,3.5,3.5,54,0.00,OVC,OVC,0.29,WeatherDisplay:10.37,2013-08-12 14:30:00,
2013-08-12 09:35:00,68.9,51.6,30.00,North,360,3.5,3.5,54,0.00,OVC,OVC,0.29,WeatherDisplay:10.37,2013-08-12 14:35:00,
2013-08-12 09:40:00,69.2,51.8,30.00,NNE,13,3.5,3.5,54,0.00,OVC,OVC,0.29,WeatherDisplay:10.37,2013-08-12 14:40:00,
2013-08-12 09:46:00,69.4,52.0,30.01,NNE,24,4.6,4.6,54,0.00,OVC,OVC,0.29,WeatherDisplay:10.37,2013-08-12 14:46:00,
2013-08-12 09:51:00,69.5,52.6,30.01,NNW,348,9.2,9.2,55,0.00,OVC,OVC,0.29,WeatherDisplay:10.37,2013-08-12 14:51:00,
2013-08-12 09:56:00,69.9,54.0,30.01,North,355,5.8,5.8,57,0.00,OVC,OVC,0.29,WeatherDisplay:10.37,2013-08-12 14:56:00,
2013-08-12 10:01:00,70.2,55.2,30.01,NNE,30,5.8,5.8,59,0.00,CLR,CLR,0.29,WeatherDisplay:10.37,2013-08-12 15:01:00,
2013-08-12 10:06:00,70.6,56.0,30.01,ESE,108,3.5,3.5,60,0.00,CLR,CLR,0.29,WeatherDisplay:10.37,2013-08-12 15:06:00,
2013-08-12 10:12:00,71.5,57.3,30.01,WNW,302,4.0,4.0,61,0.00,CLR,CLR,0.29,WeatherDisplay:10.37,2013-08-12 15:12:00,
2013-08-12 10:17:00,72.3,59.0,30.01,NE,46,4.6,4.6,63,0.00,CLR,CLR,0.29,WeatherDisplay:10.37,2013-08-12 15:17:00,
2013-08-12 10:22:00,73.4,60.5,30.01,NNE,14,4.0,4.0,64,0.00,CLR,CLR,0.29,WeatherDisplay:10.37,2013-08-12 15:22:00,
2013-08-12 10:27:00,74.2,61.7,30.00,NNE,30,3.5,3.5,65,0.00,CLR,CLR,0.29,WeatherDisplay:10.37,2013-08-12 15:27:00,
2013-08-12 10:33:00,74.9,62.3,30.00,North,5,6.9,6.9,65,0.00,CLR,CLR,0.29,WeatherDisplay:10.37,2013-08-12 15:33:00,
2013-08-12 10:38:00,75.3,63.2,30.01,NW,325,3.5,3.5,66,0.00,CLR,CLR,0.29,WeatherDisplay:10.37,2013-08-12 15:38:00,
2013-08-12 10:43:00,75.7,63.5,30.01,NE,41,4.6,4.6,66,0.00,CLR,CLR,0.29,WeatherDisplay:10.37,2013-08-12 15:43:00,
2013-08-12 10:48:00,76.2,64.0,30.01,NNE,30,3.5,3.5,66,0.00,CLR,CLR,0.29,WeatherDisplay:10.37,2013-08-12 15:48:00,
2013-08-12 10:53:00,76.9,64.7,30.01,NNE,20,4.0,4.0,66,0.00,CLR,CLR,0.29,WeatherDisplay:10.37,2013-08-12 15:53:00,
2013-08-12 10:59:00,77.1,64.9,30.01,NNE,17,5.8,5.8,66,0.00,OVC,OVC,0.29,WeatherDisplay:10.37,2013-08-12 15:59:00,
2013-08-12 11:04:00,77.2,65.0,30.01,NNE,30,3.0,3.0,66,0.00,OVC,OVC,0.29,WeatherDisplay:10.37,2013-08-12 16:04:00,
2013-08-12 11:09:00,77.6,65.3,30.01,NNE,15,7.0,7.0,66,0.00,OVC,OVC,0.29,WeatherDisplay:10.37,2013-08-12 16:09:00,
2013-08-12 11:14:00,78.0,65.3,30.01,West,276,5.8,5.8,65,0.00,OVC,OVC,0.29,WeatherDisplay:10.37,2013-08-12 16:14:00,
2013-08-12 11:19:00,78.4,65.7,30.01,North,9,4.0,4.0,65,0.00,OVC,OVC,0.29,WeatherDisplay:10.37,2013-08-12 16:19:00,
2013-08-12 11:24:00,78.7,65.5,30.01,NNE,28,4.6,4.6,64,0.00,OVC,OVC,0.29,WeatherDisplay:10.37,2013-08-12 16:24:00,
2013-08-12 11:29:00,78.7,65.0,30.01,NNE,19,6.9,6.9,63,0.00,OVC,OVC,0.29,WeatherDisplay:10.37,2013-08-12 16:29:00,
2013-08-12 11:34:00,79.1,65.4,30.01,North,10,5.8,5.8,63,0.00,OVC,OVC,0.29,WeatherDisplay:10.37,2013-08-12 16:34:00,
2013-08-12 11:39:00,79.6,65.4,30.01,North,9,4.6,4.6,62,0.00,OVC,OVC,0.29,WeatherDisplay:10.37,2013-08-12 16:39:00,
2013-08-12 11:44:00,80.1,65.4,30.01,NNE,20,5.8,5.8,61,0.00,OVC,OVC,0.29,WeatherDisplay:10.37,2013-08-12 16:44:00,
2013-08-12 11:49:00,79.7,64.1,30.01,North,11,6.0,6.0,59,0.00,OVC,OVC,0.29,WeatherDisplay:10.37,2013-08-12 16:49:00,
2013-08-12 11:54:00,80.1,65.0,30.00,North,360,5.8,5.8,60,0.00,OVC,OVC,0.29,WeatherDisplay:10.37,2013-08-12 16:54:00,
2013-08-12 11:59:00,80.2,63.6,30.01,NNW,346,6.9,6.9,57,0.00,OVC,OVC,0.29,WeatherDisplay:10.37,2013-08-12 16:59:00,
2013-08-12 12:05:00,80.2,62.6,30.01,NW,325,3.5,3.5,55,0.00,OVC,OVC,0.29,WeatherDisplay:10.37,2013-08-12 17:05:00,
2013-08-12 12:10:00,80.6,61.9,30.01,North,360,5.8,5.8,53,0.00,OVC,OVC,0.29,WeatherDisplay:10.37,2013-08-12 17:10:00,
2013-08-12 12:15:00,80.5,61.3,30.01,ENE,57,3.5,3.5,52,0.00,OVC,OVC,0.29,WeatherDisplay:10.37,2013-08-12 17:15:00,
2013-08-12 12:20:00,81.3,62.0,30.00,NE,44,3.5,3.5,52,0.00,OVC,OVC,0.29,WeatherDisplay:10.37,2013-08-12 17:20:00,
2013-08-12 12:25:00,81.2,61.4,30.00,North,5,3.5,3.5,51,0.00,OVC,OVC,0.29,WeatherDisplay:10.37,2013-08-12 17:25:00,
2013-08-12 12:31:00,81.3,59.7,30.00,NE,41,6.9,6.9,48,0.00,OVC,OVC,0.29,WeatherDisplay:10.37,2013-08-12 17:31:00,
2013-08-12 12:36:00,81.5,61.1,30.00,NNE,25,4.6,4.6,50,0.00,OVC,OVC,0.29,WeatherDisplay:10.37,2013-08-12 17:36:00,
2013-08-12 12:41:00,81.9,61.4,30.00,NE,49,3.0,3.0,50,0.00,OVC,OVC,0.29,WeatherDisplay:10.37,2013-08-12 17:41:00,
2013-08-12 12:46:00,81.9,59.7,30.00,NNE,25,11.5,11.5,47,0.00,OVC,OVC,0.29,WeatherDisplay:10.37,2013-08-12 17:46:00,
2013-08-12 12:52:00,82.5,60.8,29.99,NNE,24,3.5,3.5,48,0.00,OVC,OVC,0.29,WeatherDisplay:10.37,2013-08-12 17:52:00,
2013-08-12 12:57:00,82.3,58.2,30.00,NNW,338,11.5,11.5,44,0.00,OVC,OVC,0.29,WeatherDisplay:10.37,2013-08-12 17:57:00,
2013-08-12 13:02:00,81.6,58.8,29.99,NNW,342,4.6,4.6,46,0.00,OVC,OVC,0.29,WeatherDisplay:10.37,2013-08-12 18:02:00,
2013-08-12 13:07:00,81.7,58.3,29.99,WNW,295,5.8,5.8,45,0.00,OVC,OVC,0.29,WeatherDisplay:10.37,2013-08-12 18:07:00,
2013-08-12 13:12:00,81.9,58.5,29.99,NW,318,8.1,8.1,45,0.00,OVC,OVC,0.29,WeatherDisplay:10.37,2013-08-12 18:12:00,
2013-08-12 13:18:00,82.1,58.7,29.99,NE,37,11.5,11.5,45,0.00,OVC,OVC,0.29,WeatherDisplay:10.37,2013-08-12 18:18:00,
2013-08-12 13:23:00,82.4,57.7,29.99,NNE,15,6.0,6.0,43,0.00,OVC,OVC,0.29,WeatherDisplay:10.37,2013-08-12 18:23:00,
2013-08-12 13:28:00,82.8,59.3,29.99,NNE,23,2.3,2.3,45,0.00,OVC,OVC,0.29,WeatherDisplay:10.37,2013-08-12 18:28:00,
2013-08-12 13:33:00,83.0,58.8,29.99,NW,323,5.8,5.8,44,0.00,OVC,OVC,0.29,WeatherDisplay:10.37,2013-08-12 18:33:00,
2013-08-12 13:38:00,83.0,57.5,29.99,North,355,15.0,15.0,42,0.00,OVC,OVC,0.29,WeatherDisplay:10.37,2013-08-12 18:38:00,
2013-08-12 13:43:00,82.6,56.5,29.99,North,9,11.5,11.5,41,0.00,OVC,OVC,0.29,WeatherDisplay:10.37,2013-08-12 18:43:00,
2013-08-12 13:49:00,82.8,58.0,29.99,NNE,28,12.0,12.0,43,0.00,OVC,OVC,0.29,WeatherDisplay:10.37,2013-08-12 18:49:00,
2013-08-12 13:54:00,83.2,58.4,29.99,NNE,13,10.4,10.4,43,0.00,OVC,OVC,0.29,WeatherDisplay:10.37,2013-08-12 18:54:00,
2013-08-12 13:59:00,83.2,58.4,29.99,ENE,63,4.6,4.6,43,0.00,OVC,OVC,0.29,WeatherDisplay:10.37,2013-08-12 18:59:00,
2013-08-12 14:04:00,83.0,58.2,29.99,North,360,11.0,11.0,43,0.00,OVC,OVC,0.29,WeatherDisplay:10.37,2013-08-12 19:04:00,
2013-08-12 14:09:00,82.7,57.9,29.99,NW,315,6.9,6.9,43,0.00,OVC,OVC,0.29,WeatherDisplay:10.37,2013-08-12 19:09:00,
2013-08-12 14:14:00,82.8,58.7,29.99,NW,323,11.5,11.5,44,0.00,OVC,OVC,0.29,WeatherDisplay:10.37,2013-08-12 19:14:00,
2013-08-12 14:19:00,83.2,59.0,29.98,North,5,3.5,3.5,44,0.00,OVC,OVC,0.29,WeatherDisplay:10.37,2013-08-12 19:19:00,
2013-08-12 14:24:00,83.3,57.8,29.99,NNE,25,6.9,6.9,42,0.00,OVC,OVC,0.29,WeatherDisplay:10.37,2013-08-12 19:24:00,
2013-08-12 14:29:00,83.5,58.0,29.98,North,5,10.4,10.4,42,0.00,OVC,OVC,0.29,WeatherDisplay:10.37,2013-08-12 19:29:00,
2013-08-12 14:35:00,83.4,57.9,29.98,ENE,71,6.9,6.9,42,0.00,OVC,OVC,0.29,WeatherDisplay:10.37,2013-08-12 19:35:00,
2013-08-12 14:40:00,83.9,58.3,29.98,ENE,74,0.0,0.0,42,0.00,OVC,OVC,0.29,WeatherDisplay:10.37,2013-08-12 19:40:00,
2013-08-12 14:45:00,83.8,56.9,29.98,North,355,11.5,11.5,40,0.00,OVC,OVC,0.29,WeatherDisplay:10.37,2013-08-12 19:45:00,
2013-08-12 14:50:00,83.2,56.4,29.98,NE,38,6.9,6.9,40,0.00,OVC,OVC,0.29,WeatherDisplay:10.37,2013-08-12 19:50:00,
2013-08-12 14:56:00,83.2,57.1,29.98,NNW,341,9.2,9.2,41,0.00,OVC,OVC,0.29,WeatherDisplay:10.37,2013-08-12 19:56:00,
2013-08-12 15:01:00,83.6,55.3,29.98,NNE,29,10.4,10.4,38,0.00,OVC,OVC,0.29,WeatherDisplay:10.37,2013-08-12 20:01:00,
2013-08-12 15:06:00,84.4,56.0,29.98,NE,37,4.0,4.0,38,0.00,OVC,OVC,0.29,WeatherDisplay:10.37,2013-08-12 20:06:00,
2013-08-12 15:11:00,84.9,55.7,29.98,North,5,6.9,6.9,37,0.00,OVC,OVC,0.29,WeatherDisplay:10.37,2013-08-12 20:11:00,
2013-08-12 15:16:00,84.6,55.5,29.98,East,90,3.5,3.5,37,0.00,OVC,OVC,0.29,WeatherDisplay:10.37,2013-08-12 20:16:00,
2013-08-12 15:21:00,84.5,54.6,29.98,North,9,8.1,8.1,36,0.00,OVC,OVC,0.29,WeatherDisplay:10.37,2013-08-12 20:21:00,
2013-08-12 15:26:00,84.2,55.1,29.98,NNE,15,5.8,5.8,37,0.00,OVC,OVC,0.29,WeatherDisplay:10.37,2013-08-12 20:26:00,
2013-08-12 15:32:00,83.8,54.7,29.97,NNE,15,6.0,6.0,37,0.00,OVC,OVC,0.29,WeatherDisplay:10.37,2013-08-12 20:32:00,
2013-08-12 15:37:00,83.5,55.2,29.97,NE,55,6.9,6.9,38,0.00,OVC,OVC,0.29,WeatherDisplay:10.37,2013-08-12 20:37:00,
2013-08-12 15:42:00,83.5,55.9,29.97,ENE,61,5.8,5.8,39,0.00,OVC,OVC,0.29,WeatherDisplay:10.37,2013-08-12 20:42:00,
2013-08-12 15:47:00,83.5,53.0,29.97,NW,325,10.4,10.4,35,0.00,OVC,OVC,0.29,WeatherDisplay:10.37,2013-08-12 20:47:00,
2013-08-12 15:52:00,83.6,53.8,29.97,NNE,29,11.5,11.5,36,0.00,OVC,OVC,0.29,WeatherDisplay:10.37,2013-08-12 20:52:00,
2013-08-12 15:57:00,83.1,54.1,29.97,NNE,15,12.7,12.7,37,0.00,OVC,OVC,0.29,WeatherDisplay:10.37,2013-08-12 20:57:00,
2013-08-12 16:02:00,82.9,53.2,29.97,NW,325,9.2,9.2,36,0.00,OVC,OVC,0.29,WeatherDisplay:10.37,2013-08-12 21:02:00,
2013-08-12 16:08:00,83.0,54.0,29.97,NW,321,6.0,6.0,37,0.00,OVC,OVC,0.29,WeatherDisplay:10.37,2013-08-12 21:08:00,
2013-08-12 16:13:00,83.5,54.5,29.97,NNE,13,6.9,6.9,37,0.00,OVC,OVC,0.29,WeatherDisplay:10.37,2013-08-12 21:13:00,
2013-08-12 16:18:00,83.6,53.8,29.97,NNW,333,11.5,11.5,36,0.00,OVC,OVC,0.29,WeatherDisplay:10.37,2013-08-12 21:18:00,
2013-08-12 16:23:00,84.0,53.4,29.97,NE,36,3.5,3.5,35,0.00,OVC,OVC,0.29,WeatherDisplay:10.37,2013-08-12 21:23:00,
2013-08-12 16:28:00,84.5,53.8,29.97,NW,324,4.0,4.0,35,0.00,OVC,OVC,0.29,WeatherDisplay:10.37,2013-08-12 21:28:00,
2013-08-12 16:33:00,84.5,53.0,29.97,North,5,11.5,11.5,34,0.00,OVC,OVC,0.29,WeatherDisplay:10.37,2013-08-12 21:33:00,
2013-08-12 16:39:00,83.8,53.2,29.97,NNW,341,10.4,10.4,35,0.00,OVC,OVC,0.29,WeatherDisplay:10.37,2013-08-12 21:39:00,
2013-08-12 16:44:00,83.9,54.1,29.97,NNE,18,5.8,5.8,36,0.00,OVC,OVC,0.29,WeatherDisplay:10.37,2013-08-12 21:44:00,
2013-08-12 16:49:00,83.8,53.2,29.97,North,9,11.0,11.0,35,0.00,OVC,OVC,0.29,WeatherDisplay:10.37,2013-08-12 21:49:00,
2013-08-12 16:54:00,83.9,54.1,29.97,NE,35,4.6,4.6,36,0.00,OVC,OVC,0.29,WeatherDisplay:10.37,2013-08-12 21:54:00,
2013-08-12 16:59:00,84.6,53.9,29.97,NE,40,9.0,9.0,35,0.00,OVC,OVC,0.29,WeatherDisplay:10.37,2013-08-12 21:59:00,
2013-08-12 17:05:00,84.3,53.7,29.97,North,9,6.9,6.9,35,0.00,OVC,OVC,0.29,WeatherDisplay:10.37,2013-08-12 22:05:00,
2013-08-12 17:10:00,83.9,52.5,29.97,NNW,335,11.5,11.5,34,0.00,OVC,OVC,0.29,WeatherDisplay:10.37,2013-08-12 22:10:00,
2013-08-12 17:15:00,83.2,51.9,29.97,North,360,8.1,8.1,34,0.00,OVC,OVC,0.29,WeatherDisplay:10.37,2013-08-12 22:15:00,
2013-08-12 17:20:00,82.8,53.1,29.97,NNE,28,10.0,10.0,36,0.00,OVC,OVC,0.29,WeatherDisplay:10.37,2013-08-12 22:20:00,
2013-08-12 17:26:00,82.6,52.9,29.97,NNW,330,3.5,3.5,36,0.00,OVC,OVC,0.29,WeatherDisplay:10.37,2013-08-12 22:26:00,
2013-08-12 17:31:00,82.5,52.1,29.98,North,351,11.5,11.5,35,0.00,OVC,OVC,0.29,WeatherDisplay:10.37,2013-08-12 22:31:00,
2013-08-12 17:36:00,82.5,52.9,29.98,NNW,348,6.0,6.0,36,0.00,OVC,OVC,0.29,WeatherDisplay:10.37,2013-08-12 22:36:00,
2013-08-12 17:42:00,82.0,50.9,29.97,NNE,23,10.4,10.4,34,0.00,OVC,OVC,0.29,WeatherDisplay:10.37,2013-08-12 22:42:00,
2013-08-12 17:47:00,82.1,50.9,29.98,NNE,13,10.4,10.4,34,0.00,OVC,OVC,0.29,WeatherDisplay:10.37,2013-08-12 22:47:00,
2013-08-12 17:52:00,81.8,50.7,29.98,NE,44,11.5,11.5,34,0.00,OVC,OVC,0.29,WeatherDisplay:10.37,2013-08-12 22:52:00,
2013-08-12 17:57:00,81.7,51.4,29.97,NE,44,7.0,7.0,35,0.00,OVC,OVC,0.29,WeatherDisplay:10.37,2013-08-12 22:57:00,
2013-08-12 18:02:00,81.8,52.2,29.97,North,5,7.0,7.0,36,0.00,OVC,OVC,0.29,WeatherDisplay:10.37,2013-08-12 23:02:00,
2013-08-12 18:07:00,82.3,51.9,29.97,NW,319,5.8,5.8,35,0.00,OVC,OVC,0.29,WeatherDisplay:10.37,2013-08-12 23:07:00,
2013-08-12 18:12:00,82.4,52.8,29.97,North,360,5.0,5.0,36,0.00,OVC,OVC,0.29,WeatherDisplay:10.37,2013-08-12 23:12:00,
2013-08-12 18:18:00,82.3,51.1,29.97,NE,42,5.8,5.8,34,0.00,OVC,OVC,0.29,WeatherDisplay:10.37,2013-08-12 23:18:00,
2013-08-12 18:23:00,82.1,50.9,29.97,WNW,288,9.2,9.2,34,0.00,OVC,OVC,0.29,WeatherDisplay:10.37,2013-08-12 23:23:00,
2013-08-12 18:28:00,81.9,51.6,29.98,ENE,59,5.8,5.8,35,0.00,OVC,OVC,0.29,WeatherDisplay:10.37,2013-08-12 23:28:00,
2013-08-12 18:33:00,81.5,52.0,29.97,North,360,4.6,4.6,36,0.00,OVC,OVC,0.29,WeatherDisplay:10.37,2013-08-12 23:33:00,
2013-08-12 18:38:00,81.2,51.7,29.98,North,355,10.4,10.4,36,0.00,OVC,OVC,0.29,WeatherDisplay:10.37,2013-08-12 23:38:00,
2013-08-12 18:43:00,80.9,51.4,29.98,NW,321,6.9,6.9,36,0.00,OVC,OVC,0.29,WeatherDisplay:10.37,2013-08-12 23:43:00,
2013-08-12 18:48:00,80.5,50.3,29.98,NNE,15,6.9,6.9,35,0.00,OVC,OVC,0.29,WeatherDisplay:10.37,2013-08-12 23:48:00,
2013-08-12 18:53:00,80.3,50.1,29.97,NNW,342,8.1,8.1,35,0.00,OVC,OVC,0.29,WeatherDisplay:10.37,2013-08-12 23:53:00,
2013-08-12 18:58:00,80.2,50.1,29.97,North,9,9.2,9.2,35,0.00,OVC,OVC,0.29,WeatherDisplay:10.37,2013-08-12 23:58:00,
2013-08-12 19:03:00,80.1,50.7,29.97,NNE,21,4.6,4.6,36,0.00,OVC,OVC,0.29,WeatherDisplay:10.37,2013-08-13 00:03:00,
2013-08-12 19:09:00,80.0,51.4,29.97,North,355,4.6,4.6,37,0.00,OVC,OVC,0.29,WeatherDisplay:10.37,2013-08-13 00:09:00,
2013-08-12 19:14:00,79.8,51.2,29.97,NNW,348,3.5,3.5,37,0.00,OVC,OVC,0.29,WeatherDisplay:10.37,2013-08-13 00:14:00,
2013-08-12 19:19:00,79.5,50.9,29.97,NW,321,4.6,4.6,37,0.00,OVC,OVC,0.29,WeatherDisplay:10.37,2013-08-13 00:19:00,
2013-08-12 19:24:00,78.8,51.7,29.97,North,5,3.5,3.5,39,0.00,OVC,OVC,0.29,WeatherDisplay:10.37,2013-08-13 00:24:00,
2013-08-12 19:29:00,78.4,52.1,29.98,NNE,30,6.0,6.0,40,0.00,OVC,OVC,0.29,WeatherDisplay:10.37,2013-08-13 00:29:00,
2013-08-12 19:34:00,77.7,50.8,29.98,North,9,10.4,10.4,39,0.00,OVC,OVC,0.29,WeatherDisplay:10.37,2013-08-13 00:34:00,
2013-08-12 19:39:00,77.3,50.4,29.98,NNE,26,5.8,5.8,39,0.00,OVC,OVC,0.29,WeatherDisplay:10.37,2013-08-13 00:39:00,
2013-08-12 19:45:00,76.9,50.7,29.98,NNE,12,4.6,4.6,40,0.00,OVC,OVC,0.29,WeatherDisplay:10.37,2013-08-13 00:45:00,
2013-08-12 19:50:00,76.5,50.4,29.98,NNE,24,3.5,3.5,40,0.00,OVC,OVC,0.29,WeatherDisplay:10.37,2013-08-13 00:50:00,
2013-08-12 19:55:00,76.2,50.8,29.98,NNE,15,4.0,4.0,41,0.00,OVC,OVC,0.29,WeatherDisplay:10.37,2013-08-13 00:55:00,
2013-08-12 20:00:00,75.9,51.2,29.98,NNE,30,3.5,3.5,42,0.00,OVC,OVC,0.29,WeatherDisplay:10.37,2013-08-13 01:00:00,
2013-08-12 20:05:00,75.5,50.8,29.98,NW,317,2.3,2.3,42,0.00,OVC,OVC,0.29,WeatherDisplay:10.37,2013-08-13 01:05:00,
2013-08-12 20:10:00,75.1,51.1,29.99,North,355,4.6,4.6,43,0.00,OVC,OVC,0.29,WeatherDisplay:10.37,2013-08-13 01:10:00,
2013-08-12 20:15:00,74.7,51.3,29.98,NW,313,3.5,3.5,44,0.00,OVC,OVC,0.29,WeatherDisplay:10.37,2013-08-13 01:15:00,
2013-08-12 20:21:00,74.4,51.7,29.99,NW,314,3.5,3.5,45,0.00,OVC,OVC,0.29,WeatherDisplay:10.37,2013-08-13 01:21:00,
2013-08-12 20:26:00,74.0,51.9,29.99,NNW,340,3.5,0.0,46,0.00,OVC,OVC,0.29,WeatherDisplay:10.37,2013-08-13 01:26:00,
2013-08-12 20:31:00,73.7,52.2,29.99,NNE,29,3.5,3.5,47,0.00,OVC,OVC,0.29,WeatherDisplay:10.37,2013-08-13 01:31:00,
2013-08-12 20:36:00,73.5,52.6,29.99,NNE,27,0.0,0.1,48,0.00,OVC,OVC,0.29,WeatherDisplay:10.37,2013-08-13 01:36:00,
2013-08-12 20:41:00,73.1,52.8,29.99,NNE,27,3.5,3.5,49,0.00,OVC,OVC,0.29,WeatherDisplay:10.37,2013-08-13 01:41:00,
2013-08-12 20:46:00,72.9,53.2,30.00,NNE,26,3.5,3.5,50,0.00,OVC,OVC,0.29,WeatherDisplay:10.37,2013-08-13 01:46:00,
2013-08-12 20:51:00,72.6,53.4,30.00,NNE,26,3.5,3.5,51,0.00,OVC,OVC,0.29,WeatherDisplay:10.37,2013-08-13 01:51:00,
2013-08-12 20:56:00,72.3,53.2,30.00,NNE,26,0.0,0.0,51,0.00,OVC,OVC,0.29,WeatherDisplay:10.37,2013-08-13 01:56:00,
2013-08-12 21:01:00,72.1,53.5,30.00,NNE,26,0.0,0.0,52,0.00,OVC,OVC,0.29,WeatherDisplay:10.37,2013-08-13 02:01:00,
2013-08-12 21:07:00,71.8,53.7,30.01,NNE,26,2.3,2.3,53,0.00,OVC,OVC,0.29,WeatherDisplay:10.37,2013-08-13 02:07:00,
2013-08-12 21:12:00,71.6,54.1,30.01,NNE,26,0.0,0.0,54,0.00,OVC,OVC,0.29,WeatherDisplay:10.37,2013-08-13 02:12:00,
2013-08-12 21:17:00,71.3,54.3,30.01,NNE,26,2.3,2.3,55,0.00,OVC,OVC,0.29,WeatherDisplay:10.37,2013-08-13 02:17:00,
2013-08-12 21:22:00,71.3,54.8,30.01,NNE,14,1.2,0.0,56,0.00,OVC,OVC,0.29,WeatherDisplay:10.37,2013-08-13 02:22:00,
2013-08-12 21:27:00,71.3,55.3,30.01,NNE,14,2.3,2.3,57,0.00,OVC,OVC,0.29,WeatherDisplay:10.37,2013-08-13 02:27:00,
2013-08-12 21:32:00,71.2,55.7,30.01,North,5,1.2,0.0,58,0.00,OVC,OVC,0.29,WeatherDisplay:10.37,2013-08-13 02:32:00,
2013-08-12 21:37:00,71.0,55.5,30.02,North,5,0.0,0.0,58,0.00,OVC,OVC,0.29,WeatherDisplay:10.37,2013-08-13 02:37:00,
2013-08-12 21:42:00,70.9,55.4,30.02,North,5,0.0,0.0,58,0.00,OVC,OVC,0.29,WeatherDisplay:10.37,2013-08-13 02:42:00,
2013-08-12 21:47:00,70.8,55.8,30.02,North,5,0.0,0.0,59,0.00,OVC,OVC,0.29,WeatherDisplay:10.37,2013-08-13 02:47:00,
2013-08-12 21:52:00,70.6,56.0,30.02,North,5,3.5,3.5,60,0.00,OVC,OVC,0.29,WeatherDisplay:10.37,2013-08-13 02:52:00,
2013-08-12 21:57:00,70.5,55.9,30.02,North,5,1.2,1.2,60,0.00,OVC,OVC,0.29,WeatherDisplay:10.37,2013-08-13 02:57:00,
2013-08-12 22:03:00,70.3,56.2,30.02,North,5,0.0,0.0,61,0.00,CLR,CLR,0.29,WeatherDisplay:10.37,2013-08-13 03:03:00,
2013-08-12 22:08:00,70.2,56.1,30.02,North,5,0.0,0.0,61,0.00,CLR,CLR,0.29,WeatherDisplay:10.37,2013-08-13 03:08:00,
2013-08-12 22:13:00,70.1,56.0,30.02,North,5,1.2,0.0,61,0.00,CLR,CLR,0.29,WeatherDisplay:10.37,2013-08-13 03:13:00,
2013-08-12 22:18:00,70.1,56.0,30.02,North,5,0.0,0.0,61,0.00,CLR,CLR,0.29,WeatherDisplay:10.37,2013-08-13 03:18:00,
2013-08-12 22:23:00,69.9,56.3,30.03,North,5,0.0,0.0,62,0.00,CLR,CLR,0.29,WeatherDisplay:10.37,2013-08-13 03:23:00,
2013-08-12 22:28:00,69.7,56.1,30.03,North,5,0.0,0.0,62,0.00,CLR,CLR,0.29,WeatherDisplay:10.37,2013-08-13 03:28:00,
2013-08-12 22:33:00,69.5,55.9,30.03,North,5,0.0,0.0,62,0.00,CLR,CLR,0.29,WeatherDisplay:10.37,2013-08-13 03:33:00,
2013-08-12 22:38:00,69.4,56.3,30.03,North,5,0.0,0.0,63,0.00,CLR,CLR,0.29,WeatherDisplay:10.37,2013-08-13 03:38:00,
2013-08-12 22:43:00,69.2,56.1,30.03,North,5,0.0,0.0,63,0.00,CLR,CLR,0.29,WeatherDisplay:10.37,2013-08-13 03:43:00,
2013-08-12 22:49:00,68.9,56.2,30.03,North,5,0.0,0.0,64,0.00,CLR,CLR,0.29,WeatherDisplay:10.37,2013-08-13 03:49:00,
2013-08-12 22:54:00,68.8,56.1,30.03,North,5,0.0,0.0,64,0.00,CLR,CLR,0.29,WeatherDisplay:10.37,2013-08-13 03:54:00,
2013-08-12 22:59:00,68.5,55.8,30.03,North,5,0.0,0.0,64,0.00,CLR,CLR,0.29,WeatherDisplay:10.37,2013-08-13 03:59:00,
2013-08-12 23:01:00,68.4,56.2,30.03,North,5,0.0,0.0,65,0.00,CLR,CLR,0.29,WeatherDisplay:10.37,2013-08-13 04:01:00,
2013-08-12 23:03:00,68.3,56.1,30.03,North,5,0.0,0.0,65,0.00,CLR,CLR,0.29,WeatherDisplay:10.37,2013-08-13 04:03:00,
2013-08-12 23:04:00,68.3,56.1,30.03,North,5,0.0,0.0,65,0.00,CLR,CLR,0.29,WeatherDisplay:10.37,2013-08-13 04:04:00,
2013-08-12 23:10:00,68.0,55.8,30.03,North,5,0.0,0.0,65,0.00,CLR,CLR,0.29,WeatherDisplay:10.37,2013-08-13 04:10:00,
2013-08-12 23:15:00,67.9,56.1,30.03,North,5,0.0,0.0,66,0.00,CLR,CLR,0.29,WeatherDisplay:10.37,2013-08-13 04:15:00,
2013-08-12 23:20:00,67.7,55.9,30.03,North,5,0.0,0.0,66,0.00,CLR,CLR,0.29,WeatherDisplay:10.37,2013-08-13 04:20:00,
2013-08-12 23:25:00,67.5,55.7,30.03,North,5,0.0,0.0,66,0.00,CLR,CLR,0.29,WeatherDisplay:10.37,2013-08-13 04:25:00,
2013-08-12 23:30:00,67.4,55.6,30.04,North,5,0.0,0.0,66,0.00,CLR,CLR,0.29,WeatherDisplay:10.37,2013-08-13 04:30:00,
2013-08-12 23:36:00,67.1,55.4,30.03,North,5,0.0,0.0,66,0.00,CLR,CLR,0.29,WeatherDisplay:10.37,2013-08-13 04:36:00,
2013-08-12 23:41:00,66.9,55.6,30.04,North,5,0.0,0.0,67,0.00,CLR,CLR,0.29,WeatherDisplay:10.37,2013-08-13 04:41:00,
2013-08-12 23:46:00,66.7,55.4,30.04,North,5,0.0,0.0,67,0.00,CLR,CLR,0.29,WeatherDisplay:10.37,2013-08-13 04:46:00,
2013-08-12 23:51:00,66.5,55.2,30.04,North,5,0.0,0.0,67,0.00,CLR,CLR,0.29,WeatherDisplay:10.37,2013-08-13 04:51:00,
2013-08-12 23:57:00,66.3,55.0,30.03,North,5,0.0,0.0,67,0.00,CLR,CLR,0.29,WeatherDisplay:10.37,2013-08-13 04:57:00,